EW1417 Weather Reports


time (UTC)temp
F
wind
direction
speed
knots
gust
knots
rain 1hr
in
rain 24hr
in
rain mn
in
humidity
%
barometer
mb
20260507163019 47 360 6.1 9.6 0.00 0.00 0.00 56 1013.9
20260507161559 47 360 5.2 9.6 0.00 0.00 0.00 54 1014.1
20260507160017 46 360 5.2 9.6 0.00 0.00 0.00 58 1014.2
20260507154555 44 360 3.5 7.0 0.00 0.00 0.00 65 1014.2
20260507153048 43 360 4.3 7.8 0.00 0.00 0.00 70 1014.2
20260507151515 42 360 2.6 7.0 0.00 0.00 0.00 70 1014.2
20260507150033 42 360 2.6 5.2 0.00 0.00 0.00 68 1014.1
20260507144509 41 360 2.6 5.2 0.00 0.00 0.00 72 1014.1
20260507143047 41 360 2.6 5.2 0.00 0.00 0.00 70 1014.3
20260507141525 41 360 1.7 6.1 0.00 0.00 0.00 69 1014.3
20260507140106 41 360 2.6 6.1 0.00 0.00 0.00 68 1014.3
20260507134525 41 360 1.7 5.2 0.00 0.00 0.00 67 1014.3
20260507133005 41 360 3.5 7.0 0.00 0.00 0.00 66 1014.2
20260507131539 42 360 4.3 7.8 0.00 0.00 0.00 68 1014.1
20260507130111 42 360 3.5 6.1 0.00 0.00 0.00 70 1014.1
20260507130001 42 360 3.5 6.1 0.00 0.00 0.00 70 1014.0
20260507124546 42 360 0.9 5.2 0.00 0.00 0.00 72 1014.0
20260507123014 41 360 3.5 7.0 0.00 0.00 0.00 74 1013.9
20260507121553 41 360 5.2 7.8 0.00 0.00 0.00 75 1013.8
20260507120012 40 360 1.7 4.3 0.00 0.00 0.00 74 1013.5
20260507114549 38 360 0.0 1.7 0.00 0.00 0.00 79 1013.3
20260507113034 35 360 0.0 2.6 0.00 0.00 0.00 84 1013.2
20260507111516 32 360 0.0 2.6 0.00 0.00 0.00 88 1013.0
20260507110031 30 360 0.0 0.9 0.00 0.00 0.00 90 1012.8
20260507104512 30 360 0.0 1.7 0.00 0.00 0.00 89 1012.7
20260507103054 30 360 0.0 1.7 0.00 0.00 0.00 89 1012.7
20260507101544 31 360 0.0 1.7 0.00 0.00 0.00 90 1012.6
20260507100056 31 360 0.0 0.0 0.00 0.00 0.00 89 1012.6
20260507094528 31 360 0.0 0.0 0.00 0.00 0.00 89 1012.6
20260507093007 31 360 0.0 1.7 0.00 0.00 0.00 88 1012.8
20260507091548 32 360 0.0 1.7 0.00 0.00 0.00 87 1012.9
20260507090006 33 360 0.0 0.0 0.00 0.00 0.00 87 1012.9
20260507084552 33 360 0.0 1.7 0.00 0.00 0.00 88 1013.0
20260507083033 34 360 0.0 0.0 0.00 0.00 0.00 84 1012.9
20260507081558 35 360 0.0 0.0 0.00 0.00 0.00 84 1012.9
20260507080014 36 360 0.0 0.9 0.00 0.00 0.00 82 1013.0
20260507074600 37 360 0.0 2.6 0.00 0.00 0.00 81 1013.0
20260507073034 38 360 0.0 3.5 0.00 0.00 0.00 80 1013.0
20260507071510 38 360 0.0 1.7 0.00 0.00 0.00 79 1013.1
20260507070033 39 360 0.0 3.5 0.00 0.00 0.00 79 1013.1
20260507064510 39 360 0.9 3.5 0.00 0.00 0.00 79 1013.3
20260507063054 40 360 0.9 3.5 0.00 0.00 0.00 80 1013.4
20260507061527 40 360 0.9 3.5 0.00 0.00 0.00 79 1013.3
20260507060047 40 360 0.9 4.3 0.00 0.00 0.00 79 1013.5
20260507054525 41 360 1.7 7.0 0.00 0.00 0.00 76 1013.5
20260507053006 41 360 3.5 7.0 0.00 0.00 0.00 71 1013.5
20260507051537 42 360 1.7 12.2 0.00 0.00 0.00 69 1013.7
20260507050005 43 360 3.5 9.6 0.00 0.00 0.00 67 1013.6
20260507044545 43 360 3.5 7.0 0.00 0.00 0.00 67 1013.6
20260507043029 43 360 1.7 7.0 0.00 0.00 0.00 67 1013.5
20260507041607 43 360 1.7 4.3 0.00 0.00 0.00 71 1013.5
20260507041502 43 360 1.7 4.3 0.00 0.00 0.00 71 1013.5
20260507040019 42 360 2.6 7.0 0.00 0.00 0.00 77 1013.6
20260507034557 42 360 1.7 4.3 0.00 0.00 0.00 77 1013.6
20260507033029 42 360 3.5 7.8 0.00 0.00 0.00 73 1013.5
20260507031510 43 360 2.6 5.2 0.00 0.00 0.00 68 1013.5
20260507030031 43 360 3.5 6.1 0.00 0.00 0.00 68 1013.4
20260507024509 43 360 3.5 7.8 0.00 0.00 0.00 68 1013.3
20260507023049 43 360 3.5 7.0 0.00 0.00 0.00 67 1013.4
20260507021528 43 360 3.5 7.0 0.00 0.00 0.00 66 1013.2
20260507020056 43 360 2.6 6.1 0.00 0.00 0.00 65 1013.3
20260507014527 43 360 2.6 7.8 0.00 0.00 0.00 66 1013.3
20260507013002 43 360 5.2 7.8 0.00 0.00 0.00 65 1013.2
20260507011554 43 360 5.2 8.7 0.00 0.00 0.00 63 1013.2
20260507010005 43 360 3.5 7.0 0.00 0.00 0.00 62 1013.2
20260507004544 43 360 5.2 9.6 0.00 0.00 0.00 61 1013.1
20260507003024 44 360 4.3 7.8 0.00 0.00 0.00 60 1012.9
20260507001504 44 360 3.5 8.7 0.00 0.00 0.00 59 1012.9
20260507000023 44 360 5.2 7.0 0.00 0.00 0.00 57 1012.8
20260506234603 45 360 2.6 7.0 0.00 0.00 0.00 57 1012.9
20260506234502 44 360 2.6 7.0 0.00 0.00 0.00 57 1012.8
20260506233039 45 360 4.3 8.7 0.00 0.00 0.00 55 1012.9
20260506231516 45 360 4.3 7.0 0.00 0.00 0.00 55 1012.9
20260506230044 46 360 4.3 8.7 0.00 0.00 0.00 53 1012.9
20260506224524 46 360 5.2 7.8 0.00 0.00 0.00 52 1012.9
20260506223054 47 360 6.1 8.7 0.00 0.00 0.00 52 1013.0
20260506221530 47 360 4.3 7.8 0.00 0.00 0.00 50 1013.1
20260506220058 48 360 4.3 7.8 0.00 0.00 0.00 51 1013.1
20260506214530 47 360 3.5 7.8 0.00 0.00 0.00 52 1013.0
20260506213013 47 360 4.3 8.7 0.00 0.00 0.00 52 1013.0
20260506211548 48 360 4.3 7.8 0.00 0.00 0.00 54 1013.1
20260506210012 48 360 3.5 12.2 0.00 0.00 0.00 54 1013.2
20260506204551 47 360 4.3 11.3 0.00 0.00 0.00 53 1013.2
20260506203033 49 360 4.3 13.9 0.00 0.00 0.00 51 1013.2
20260506201506 49 360 3.5 10.4 0.00 0.00 0.00 52 1013.3
20260506200026 49 360 3.5 9.6 0.00 0.00 0.00 53 1013.2
20260506194510 49 360 5.2 9.6 0.00 0.00 0.00 51 1013.4
20260506193044 49 360 4.3 10.4 0.00 0.00 0.00 48 1013.2
20260506191524 48 360 4.3 8.7 0.00 0.00 0.00 52 1013.3
20260506190049 49 360 5.2 9.6 0.00 0.00 0.00 51 1013.1
20260506184520 49 360 3.5 7.0 0.00 0.00 0.00 51 1013.1
20260506183110 48 360 2.6 9.6 0.00 0.00 0.00 53 1013.2
20260506181534 48 360 5.2 7.8 0.00 0.00 0.00 53 1013.3
20260506180058 48 360 3.5 7.0 0.00 0.00 0.00 51 1013.2
20260506174533 49 360 3.5 7.8 0.00 0.00 0.00 53 1013.3
20260506173014 49 360 5.2 8.7 0.00 0.00 0.00 54 1013.5
20260506171548 48 360 4.3 10.4 0.00 0.00 0.00 53 1013.6
20260506170008 48 360 4.3 9.6 0.00 0.00 0.00 55 1013.6
20260506164549 48 360 3.5 8.7 0.00 0.00 0.00 52 1013.6